Wind_Speed
67 70 72 73 73 72 72 73 75 77 77 77 78 78 79 78 76 75 75 76 76 75 75 73 72 71 70 68 67 67 66 63 61 62 63 64 63 62 61 59 58 56 54
74 76 78 80 84 84 84 84 84 84 81 80 81 82 83 84 84 82 80 80 82 82 82 82 80 78 77 75 72 70 69 68 65 64 65 67 67 66 64 63 62 60 59
79 83 86 88 90 91 90 87 84 84 84 81 79 80 82 83 85 87 87 86 85 85 86 88 87 84 81 79 77 75 74 72 69 67 66 67 69 69 68 67 66 65 64
84 86 89 89 88 87 83 79 76 73 71 69 68 69 71 74 78 81 83 87 87 87 88 89 90 91 86 82 81 80 78 77 73 70 68 67 68 69 69 70 70 69 69
85 87 86 83 79 74 69 65 63 59 59 60 62 62 60 58 59 61 65 70 73 75 77 82 84 86 85 84 85 86 84 82 80 77 74 72 70 70 68 68 69 70 70
83 81 77 71 63 62 61 58 54 54 55 54 54 51 43 39 36 35 37 43 47 48 51 56 61 66 70 75 79 82 84 84 83 81 79 77 75 72 72 71 69 69 69
77 71 65 56 56 54 51 50 50 50 49 47 45 42 39 35 30 26 26 28 31 32 34 36 38 41 47 55 63 71 79 83 84 82 80 78 77 76 77 77 75 71 70
65 62 57 56 52 48 51 51 50 48 47 45 44 42 39 35 28 23 21 23 24 25 27 30 32 33 36 41 47 55 64 72 78 83 82 81 78 75 77 80 80 77 75
59 59 57 53 46 45 50 53 51 49 48 46 44 42 40 35 30 25 23 23 24 22 24 28 31 33 35 37 40 45 51 57 63 71 75 80 77 73 74 78 80 81 80
57 58 56 49 44 46 51 54 54 51 49 46 44 42 39 35 31 27 24 24 23 24 25 27 30 32 35 39 41 41 45 51 54 59 61 65 68 69 69 69 71 74 77
55 57 57 54 50 51 54 56 56 53 51 48 46 43 40 37 34 30 27 26 27 28 30 31 32 33 36 38 39 37 39 47 54 57 64 65 56 59 62 65 69 70 70
56 58 60 59 56 56 57 57 56 54 52 52 51 48 45 42 39 37 34 33 32 33 34 36 36 36 38 38 38 39 42 43 45 53 59 68 61 56 57 60 67 69 63
56 58 61 61 59 58 58 58 56 54 53 53 53 53 51 48 45 43 41 40 40 40 39 39 39 38 38 38 39 40 41 36 31 40 52 61 64 58 48 50 59 65 60
57 60 62 62 60 59 59 58 58 57 56 54 52 51 51 51 50 48 46 45 44 44 42 41 40 39 37 37 36 36 35 32 29 36 45 46 50 58 52 48 50 53 54
58 62 64 64 61 58 57 56 54 52 52 52 52 51 49 48 48 48 48 48 47 46 43 41 40 38 36 33 31 30 25 27 26 23 38 36 44 51 47 46 48 49 47
62 65 66 63 60 56 51 49 48 49 50 52 52 52 51 49 45 43 44 46 47 46 43 41 38 37 35 32 29 25 24 20 19 20 31 33 36 45 47 43 43 44 43
66 67 65 61 55 51 51 51 50 51 53 56 56 56 54 51 48 45 41 40 43 43 41 38 37 36 34 32 30 27 36 31 26 25 31 31 29 37 44 42 40 41 37
67 65 61 55 52 50 49 50 51 53 56 59 60 57 54 52 49 44 41 37 36 38 39 37 36 36 35 33 32 31 34 41 38 35 33 34 30 27 34 38 40 44 44
65 61 57 53 50 49 51 52 54 55 56 58 60 57 55 54 50 44 38 34 31 30 34 37 37 37 36 36 36 36 35 36 39 42 41 39 35 32 34 37 42 43 41
60 55 51 49 48 50 52 54 54 55 56 59 61 60 56 55 50 44 38 32 28 26 26 32 37 39 39 40 40 41 39 38 38 40 43 45 44 43 42 42 44 47 46
55 51 49 48 49 51 55 56 57 57 59 62 61 59 56 52 49 45 41 35 30 26 23 25 33 39 42 43 44 45 43 41 40 39 41 45 47 46 46 47 47 50 51
51 48 47 48 50 53 56 58 59 60 63 65 62 58 55 51 47 44 42 39 33 28 23 22 26 35 42 44 46 48 48 45 43 41 40 41 45 50 51 51 48 49 52
48 46 46 49 52 55 57 59 61 62 65 64 62 59 55 51 48 45 42 39 35 31 26 22 22 27 36 44 47 49 49 48 45 45 44 41 42 45 48 49 47 48 50
45 44 47 50 53 55 57 61 62 63 64 61 61 60 57 53 50 48 45 40 35 31 28 25 22 23 28 36 45 49 49 49 48 48 48 46 44 45 45 47 48 49 48
43 45 49 53 54 55 58 61 62 64 62 60 60 61 60 57 52 48 45 41 36 32 29 26 22 21 22 26 34 44 46 48 50 50 51 50 49 47 46 46 48 51 50
44 48 51 54 55 56 59 60 62 63 60 60 60 61 62 60 55 50 44 41 38 33 29 27 25 21 20 21 24 31 40 47 52 53 52 53 52 51 50 49 50 51 51
Wind_Direction
306 305 305 304 302 300 297 293 289 284 279 275 271 269 267 267 267 267 265 263 263 264 264 263 260 257 255 254 253 252 250 249 249 247 245 244 243 243 243 242 241 241 240
306 306 306 305 304 302 299 294 289 285 280 275 270 266 261 258 258 259 261 263 264 263 263 261 259 257 255 253 253 254 253 251 250 249 247 245 243 242 243 243 242 240 239
307 309 309 307 303 300 298 297 297 297 297 295 289 281 272 263 259 259 259 258 257 258 260 260 258 256 255 255 254 256 256 254 251 249 247 246 244 243 243 242 242 242 241
314 314 310 306 304 303 304 306 308 310 310 308 305 301 293 281 271 265 262 261 261 260 260 260 259 258 258 257 255 256 258 256 254 252 248 247 245 243 242 242 242 242 242
318 315 312 310 310 312 315 316 315 316 316 314 311 307 301 293 283 274 268 264 264 264 263 262 260 259 258 256 254 254 254 254 254 253 252 250 246 244 242 241 242 242 242
320 318 316 315 318 320 322 322 319 317 319 319 317 317 314 305 291 273 266 265 265 264 263 261 260 260 260 259 257 254 253 252 252 251 251 250 249 248 246 243 241 242 243
323 322 320 320 323 325 325 326 325 326 327 328 329 328 326 321 305 283 268 262 259 257 255 255 257 258 257 257 257 255 253 251 249 247 247 248 248 248 247 247 245 243 243
326 325 324 321 323 326 330 332 331 332 333 333 333 331 328 324 317 302 286 272 263 259 260 261 264 267 267 265 262 257 253 251 248 245 244 245 245 245 247 247 247 246 244
329 330 326 321 320 325 330 333 334 334 335 334 333 332 331 327 322 309 296 285 276 269 271 270 265 265 269 271 272 268 260 255 251 244 240 241 243 243 244 246 247 247 246
333 333 329 322 315 318 324 328 330 330 329 329 328 327 328 327 324 313 296 286 281 276 280 281 280 274 272 274 278 274 262 258 254 244 235 229 229 236 242 243 245 246 245
334 333 331 327 321 318 321 322 322 322 321 320 320 318 316 315 314 311 302 291 284 280 279 279 281 277 275 278 280 276 274 269 259 247 228 220 227 233 237 237 237 240 242
333 333 333 330 326 322 321 320 320 319 317 315 313 311 308 305 302 298 295 291 288 285 282 280 280 278 278 280 278 275 283 281 266 249 226 220 214 219 223 230 234 237 237
334 333 332 331 329 326 323 322 321 319 317 315 312 309 305 300 296 292 289 286 286 286 284 281 278 276 276 277 278 275 283 278 258 235 216 218 219 225 222 224 228 232 237
333 333 332 331 330 328 327 326 324 322 321 320 317 313 307 301 295 289 285 283 282 283 282 279 276 275 273 273 276 274 279 265 224 212 207 211 229 229 231 234 232 233 237
332 332 332 331 330 329 329 329 330 330 331 331 330 327 321 311 302 293 286 281 278 278 277 274 272 271 269 267 269 272 268 252 222 215 201 210 228 228 235 235 234 236 238
333 333 332 332 332 333 336 337 336 336 336 336 335 332 329 324 316 302 288 280 276 273 271 269 266 264 262 260 258 256 233 236 232 228 213 203 213 220 221 224 223 227 229
335 334 334 335 337 339 339 339 341 342 344 344 342 339 334 328 322 317 305 286 273 268 265 263 260 259 256 253 252 244 229 229 227 222 220 222 228 230 233 237 231 227 225
335 336 338 340 341 342 344 345 344 343 343 344 342 340 339 337 333 324 316 307 289 269 258 253 252 252 251 247 244 241 234 236 237 236 236 237 234 228 233 237 237 235 234
338 340 342 344 346 348 347 345 343 342 343 344 343 340 339 338 337 334 326 315 304 288 266 250 244 244 246 244 239 238 237 239 240 241 244 241 239 235 231 230 233 234 234
342 343 346 348 350 350 350 349 347 345 345 344 343 341 339 339 338 336 335 327 316 300 282 260 247 242 241 241 239 235 233 236 241 242 240 236 235 235 236 233 231 230 228
344 346 348 351 352 353 352 351 350 348 346 344 343 342 341 340 340 339 338 334 325 313 296 274 255 246 243 241 241 238 233 231 236 240 240 236 234 232 234 232 230 225 223
346 348 350 351 351 352 352 352 350 349 347 346 345 343 341 340 339 338 337 335 329 320 307 289 268 251 245 243 242 242 238 232 232 235 235 235 233 233 234 234 229 222 222
348 350 351 351 350 350 352 352 351 351 349 349 350 350 348 344 340 337 336 333 329 325 318 302 282 264 249 243 242 242 242 239 232 232 232 231 232 231 230 228 224 222 222
350 352 353 354 352 352 352 352 353 353 352 354 354 355 353 349 343 338 335 331 328 324 319 313 299 278 261 249 243 241 241 241 238 233 230 230 228 226 224 223 222 221 222
353 355 355 355 354 353 352 353 354 354 356 356 355 356 354 351 347 342 337 332 328 323 317 313 306 295 278 261 250 243 240 241 240 237 232 230 230 229 226 224 222 223 225
354 356 356 355 355 354 353 354 355 356 357 358 357 354 353 352 349 345 341 335 330 325 318 313 309 301 290 279 266 253 243 238 238 237 235 232 230 229 229 227 226 225 226
Height
5754 5744 5735 5725 5713 5703 5694 5685 5678 5668 5660 5655 5650 5647 5645 5643 5641 5639 5637 5636 5637 5637 5639 5642 5645 5647 5651 5655 5659 5661 5665 5671 5674 5678 5684 5688 5692 5698 5704 5709 5714 5720 5725
5741 5729 5717 5706 5694 5682 5670 5659 5648 5639 5630 5624 5619 5615 5613 5612 5612 5612 5612 5611 5612 5613 5616 5619 5623 5626 5629 5634 5639 5642 5646 5652 5657 5661 5665 5670 5677 5683 5687 5692 5698 5704 5710
5724 5712 5700 5687 5672 5657 5644 5630 5617 5607 5599 5592 5587 5586 5583 5582 5584 5585 5586 5586 5587 5588 5590 5594 5600 5604 5608 5613 5617 5621 5625 5631 5639 5643 5646 5652 5660 5665 5671 5676 5682 5688 5694
5705 5691 5676 5661 5646 5631 5619 5607 5596 5585 5575 5567 5559 5553 5548 5548 5550 5554 5559 5560 5560 5563 5567 5571 5576 5581 5586 5592 5596 5600 5604 5610 5618 5623 5628 5633 5640 5646 5653 5659 5665 5671 5677
5687 5670 5652 5637 5623 5612 5601 5592 5583 5574 5563 5552 5541 5533 5524 5518 5516 5520 5527 5533 5537 5540 5543 5547 5551 5556 5561 5567 5571 5576 5583 5589 5595 5602 5608 5614 5620 5626 5634 5641 5647 5653 5660
5667 5651 5635 5621 5611 5601 5591 5581 5572 5564 5554 5542 5530 5519 5509 5503 5500 5500 5504 5510 5515 5518 5520 5522 5526 5531 5535 5540 5545 5551 5558 5565 5571 5578 5585 5592 5600 5608 5613 5621 5628 5634 5641
5652 5638 5625 5613 5604 5595 5585 5574 5563 5553 5543 5533 5523 5513 5504 5496 5492 5491 5492 5495 5498 5501 5503 5505 5507 5510 5512 5515 5520 5525 5532 5539 5546 5554 5561 5569 5578 5585 5591 5597 5606 5615 5623
5641 5628 5615 5605 5597 5588 5576 5565 5554 5544 5534 5525 5516 5508 5499 5493 5488 5485 5484 5485 5487 5489 5491 5493 5494 5496 5497 5499 5501 5505 5509 5513 5519 5529 5537 5546 5555 5562 5568 5576 5584 5593 5602
5632 5618 5606 5596 5588 5580 5569 5558 5548 5537 5527 5518 5510 5503 5496 5489 5484 5480 5478 5478 5478 5479 5480 5481 5483 5484 5485 5485 5486 5487 5489 5491 5495 5503 5512 5523 5533 5540 5546 5553 5562 5570 5579
5623 5610 5598 5588 5580 5572 5561 5550 5540 5531 5522 5513 5505 5498 5492 5486 5481 5476 5473 5472 5471 5471 5471 5471 5471 5471 5472 5472 5471 5470 5470 5470 5473 5481 5491 5502 5511 5520 5525 5533 5540 5546 5556
5615 5603 5592 5581 5572 5562 5552 5542 5532 5523 5514 5506 5498 5491 5486 5480 5475 5471 5467 5465 5463 5462 5461 5460 5459 5458 5458 5457 5456 5455 5454 5452 5452 5458 5470 5481 5490 5499 5506 5512 5521 5528 5536
5608 5596 5585 5573 5562 5552 5542 5532 5522 5512 5503 5495 5488 5481 5476 5471 5466 5462 5458 5455 5453 5451 5449 5447 5446 5444 5443 5443 5441 5440 5439 5434 5432 5436 5447 5461 5472 5481 5485 5492 5501 5510 5517
5601 5590 5578 5565 5553 5541 5530 5520 5510 5500 5491 5482 5474 5467 5461 5456 5453 5449 5446 5443 5440 5438 5436 5434 5432 5430 5429 5429 5427 5425 5423 5420 5419 5419 5428 5443 5453 5460 5466 5474 5482 5492 5502
5593 5581 5569 5556 5543 5531 5520 5509 5499 5488 5478 5469 5460 5452 5445 5439 5434 5431 5428 5426 5424 5423 5421 5419 5417 5415 5415 5415 5414 5411 5408 5405 5406 5412 5421 5431 5440 5448 5455 5462 5469 5477 5488
5585 5573 5560 5546 5533 5521 5510 5498 5488 5477 5467 5457 5447 5438 5429 5422 5417 5413 5409 5406 5405 5405 5405 5403 5402 5401 5401 5402 5402 5400 5398 5397 5400 5406 5414 5424 5431 5437 5442 5449 5456 5464 5474
5578 5564 5550 5536 5523 5511 5500 5491 5481 5471 5461 5450 5439 5428 5417 5407 5400 5394 5390 5388 5386 5386 5387 5387 5386 5386 5387 5389 5391 5391 5392 5392 5396 5399 5405 5413 5416 5422 5431 5439 5446 5455 5462
5568 5554 5540 5526 5514 5503 5493 5483 5474 5463 5453 5441 5430 5418 5406 5394 5385 5378 5373 5369 5367 5367 5370 5371 5371 5372 5373 5377 5381 5383 5385 5385 5388 5391 5394 5399 5404 5412 5421 5429 5437 5444 5449
5559 5545 5532 5519 5508 5498 5487 5477 5467 5456 5445 5434 5422 5410 5398 5386 5375 5365 5358 5353 5350 5350 5352 5355 5357 5358 5360 5364 5369 5372 5375 5378 5381 5383 5387 5391 5398 5404 5410 5418 5425 5431 5439
5551 5538 5526 5515 5504 5494 5483 5473 5462 5451 5439 5427 5414 5402 5390 5378 5367 5357 5348 5341 5337 5335 5336 5339 5342 5344 5347 5350 5355 5359 5364 5367 5371 5375 5378 5383 5388 5394 5399 5407 5415 5421 5427
5544 5532 5521 5511 5501 5491 5480 5469 5457 5446 5433 5421 5407 5393 5380 5369 5358 5348 5341 5333 5328 5324 5323 5325 5328 5331 5333 5336 5340 5346 5351 5356 5360 5363 5367 5373 5379 5384 5389 5395 5402 5409 5415
5539 5528 5518 5508 5499 5489 5477 5465 5453 5441 5427 5413 5399 5386 5373 5361 5351 5341 5333 5326 5321 5316 5313 5312 5314 5317 5320 5323 5326 5331 5338 5345 5348 5351 5354 5358 5365 5372 5377 5383 5388 5395 5403
5536 5526 5516 5506 5497 5486 5474 5462 5449 5436 5422 5407 5392 5379 5366 5354 5345 5336 5327 5320 5313 5308 5305 5302 5301 5302 5306 5309 5313 5316 5322 5330 5336 5339 5343 5346 5352 5358 5364 5370 5376 5383 5391
5535 5524 5515 5505 5494 5483 5471 5459 5446 5431 5417 5401 5387 5373 5360 5348 5338 5330 5322 5314 5306 5300 5295 5292 5290 5289 5291 5294 5298 5302 5308 5314 5322 5326 5330 5335 5340 5345 5351 5357 5364 5371 5378
5534 5524 5514 5504 5493 5480 5468 5455 5441 5427 5412 5398 5383 5369 5356 5343 5331 5320 5312 5305 5298 5291 5286 5282 5280 5278 5277 5279 5283 5287 5293 5300 5306 5311 5317 5323 5328 5334 5339 5345 5352 5359 5366
5533 5523 5513 5502 5490 5478 5466 5452 5438 5424 5409 5395 5380 5366 5352 5338 5326 5314 5303 5295 5288 5281 5277 5273 5270 5268 5266 5265 5267 5271 5278 5282 5288 5294 5301 5308 5314 5320 5326 5333 5340 5347 5354
5532 5521 5511 5500 5488 5476 5463 5449 5435 5421 5407 5393 5378 5364 5349 5334 5320 5308 5297 5285 5277 5271 5266 5262 5260 5258 5256 5255 5255 5257 5259 5265 5269 5276 5284 5292 5299 5305 5312 5319 5327 5334 5341